sat.trackr.live / text

‹ back to catalog

STARLINK-5605

NORAD 55411 · 2023-014W

PAYLOAD ACTIVE UNKNOWN

§ Identity

Operator
Country
US
Launch date
2023-01-31
Launch site
AFWTR
Launch vehicle
Mass (kg)
RCS (m²)

Purposes: comms

External: N2YO · Heavens-Above · Gunter

§ Orbital elements

Epoch: 2026-09-20T12:21:19.688544Z

Period
96.11 min
Inclination
69.9976°
Eccentricity
0.0003440
Mean motion
14.98331762 rev/d
Perigee alt
569.7 km
Apogee alt
574.4 km
Semi-major
6,950.2 km
B*
3.3908e-5
RAAN
293.4235°
Arg perigee
269.4147°
Mean anomaly
90.6618°
Rev number
20,123

§ Raw data

STARLINK-56051 55411U 23014W   26263.51481121  .00000312  00000+0  33908-4 0  99902 55411  69.9976 293.4235 0003440 269.4147  90.6618 14.98331762201238

JSON: /api/v1/satellites/55411 · /tle

For live sub-satellite position, see the globe view (requires WebGL).

§ Visibility from observer

Set your observer location to see the next 7 days of passes ≥ 10°. The values pass through the URL so the page stays shareable.

No JS? Fill the form by hand. The geolocation button needs JavaScript.